[TLELIST] Archives

 

[list_settings.list_name] Current TLEs

January 26th 2011 PST

HST 1 20580U 90037B 11023.98997569 .00000456 00000-0 21999-4 0 7057 2 20580 028.4695 238.2252 0003350 030.0417 330.0366 15.01145687937964 ISS (ZARYA) 1 25544U 98067A 11025.49632701 .00010917 00000-0 85765-4 0 7071 2 25544 051.6427 172.5080 0003757 230.8064 231.9084 15.72118915698443 CXO 1 25867U 99040B 11026.16666667 -.00000834 00000-0 00000+0 0 5636 2 25867 068.3928 040.9447 8474192 275.9566 356.1508 00.37811607 7232 ____________________________________________________________________ These 2-Line ...Continue Reading

[list_settings.list_name] Current TLEs

January 25th 2011 PST

HST 1 20580U 90037B 11023.98997569 .00000456 00000-0 21999-4 0 7057 2 20580 028.4695 238.2252 0003350 030.0417 330.0366 15.01145687937964 ISS (ZARYA) 1 25544U 98067A 11024.41407766 -.00000331 00000-0 21299-5 0 6996 2 25544 051.6427 178.0495 0004083 225.7606 227.7609 15.72098710698279 CXO 1 25867U 99040B 11023.54166667 -.00000600 00000-0 00000+0 0 5620 2 25867 068.3726 041.0653 8467861 275.9693 358.7529 00.37806379 7225 ____________________________________________________________________ These 2-Line ...Continue Reading

[list_settings.list_name] Current TLEs

January 24th 2011 PST

HST 1 20580U 90037B 11022.72675794 .00000431 00000-0 20086-4 0 7049 2 20580 028.4703 246.4732 0003203 015.9513 344.1124 15.01144842937773 ISS (ZARYA) 1 25544U 98067A 11023.01617019 -.00000183 00000-0 32338-5 0 6929 2 25544 051.6438 185.2007 0004370 217.8692 238.9981 15.72048394698052 CXO 1 25867U 99040B 11023.54166667 -.00000600 00000-0 00000+0 0 5620 2 25867 068.3726 041.0653 8467861 275.9693 358.7529 00.37806379 7225 ____________________________________________________________________ These 2-Line ...Continue Reading

[list_settings.list_name] Current TLEs

January 23rd 2011 PST

HST 1 20580U 90037B 11019.13656013 .00000481 00000-0 23886-4 0 7038 2 20580 028.4721 269.9148 0003108 336.0472 023.9942 15.01143351937234 ISS (ZARYA) 1 25544U 98067A 11022.06355600 -.00060251 00000-0 -44954-3 0 6870 2 25544 051.6461 190.0826 0004510 212.4253 249.6153 15.71992228697907 CXO 1 25867U 99040B 11018.25000000 -.00000651 00000-0 00000+0 0 5615 2 25867 068.3282 041.5272 8461442 275.9148 358.1615 00.37802901 7203 ____________________________________________________________________ These 2-Line ...Continue Reading

[list_settings.list_name] Current TLEs

January 22nd 2011 PST

HST 1 20580U 90037B 11019.13656013 .00000481 00000-0 23886-4 0 7038 2 20580 028.4721 269.9148 0003108 336.0472 023.9942 15.01143351937234 ISS (ZARYA) 1 25544U 98067A 11021.04551123 .00009747 00000-0 77232-4 0 6838 2 25544 051.6430 195.2890 0004509 202.1808 254.5037 15.72068188697749 CXO 1 25867U 99040B 11018.25000000 -.00000651 00000-0 00000+0 0 5615 2 25867 068.3282 041.5272 8461442 275.9148 358.1615 00.37802901 7203 ____________________________________________________________________ These 2-Line ...Continue Reading

[list_settings.list_name] Current TLEs

January 21st 2011 PST

HST 1 20580U 90037B 11019.13656013 .00000481 00000-0 23886-4 0 7038 2 20580 028.4721 269.9148 0003108 336.0472 023.9942 15.01143351937234 ISS (ZARYA) 1 25544U 98067A 11020.34061733 .00009367 00000-0 74451-4 0 6785 2 25544 051.6441 198.8968 0004533 197.7454 226.9611 15.72052256697637 CXO 1 25867U 99040B 11018.25000000 -.00000651 00000-0 00000+0 0 5615 2 25867 068.3282 041.5272 8461442 275.9148 358.1615 00.37802901 7203 ____________________________________________________________________ These 2-Line ...Continue Reading

[list_settings.list_name] Current TLEs

January 20th 2011 PST

HST 1 20580U 90037B 11019.13656013 .00000481 00000-0 23886-4 0 7038 2 20580 028.4721 269.9148 0003108 336.0472 023.9942 15.01143351937234 ISS (ZARYA) 1 25544U 98067A 11019.38689047 .00008734 00000-0 69797-4 0 6729 2 25544 051.6445 203.7802 0004683 195.3345 228.2553 15.72030705697481 CXO 1 25867U 99040B 11018.25000000 -.00000651 00000-0 00000+0 0 5615 2 25867 068.3282 041.5272 8461442 275.9148 358.1615 00.37802901 7203 ____________________________________________________________________ These 2-Line ...Continue Reading

[list_settings.list_name] Current TLEs

January 19th 2011 PST

HST 1 20580U 90037B 11017.14200409 .00000527 00000-0 27426-4 0 7025 2 20580 028.4714 282.9390 0003074 312.4505 047.5786 15.01142356936935 ISS (ZARYA) 1 25544U 98067A 11018.29386574 .00008908 00000-0 71159-4 0 6657 2 25544 051.6450 209.3747 0004594 192.2557 161.4450 15.72010833697304 CXO 1 25867U 99040B 11018.25000000 -.00000651 00000-0 00000+0 0 5615 2 25867 068.3282 041.5272 8461442 275.9148 358.1615 00.37802901 7203 ____________________________________________________________________ These 2-Line ...Continue Reading

[list_settings.list_name] Current TLEs

January 18th 2011 PST

HST 1 20580U 90037B 11017.14200409 .00000527 00000-0 27426-4 0 7025 2 20580 028.4714 282.9390 0003074 312.4505 047.5786 15.01142356936935 ISS (ZARYA) 1 25544U 98067A 11017.34033565 .00009042 00000-0 72211-4 0 6594 2 25544 051.6444 214.2572 0004655 189.5380 164.3099 15.71993311697153 CXO 1 25867U 99040B 11018.25000000 -.00000651 00000-0 00000+0 0 5615 2 25867 068.3282 041.5272 8461442 275.9148 358.1615 00.37802901 7203 ____________________________________________________________________ These 2-Line ...Continue Reading

[list_settings.list_name] Current TLEs

January 17th 2011 PST

HST 1 20580U 90037B 11014.81502212 .00000584 00000-0 31769-4 0 7010 2 20580 028.4712 298.1349 0003179 286.5078 073.5161 15.01141079936586 ISS (ZARYA) 1 25544U 98067A 11016.39919808 .00012617 00000-0 98912-4 0 6522 2 25544 051.6457 219.0775 0005402 185.3702 238.8852 15.71984988697017 CXO 1 25867U 99040B 11015.58333333 -.00000673 00000-0 00000+0 0 5609 2 25867 068.3199 041.6914 8457300 275.9303 355.0217 00.37799305 7190 ____________________________________________________________________ These 2-Line ...Continue Reading
  • This mailing list is a public mailing list - anyone may join or leave, at any time.
  • This mailing list is announce-only.

International Space Station (ISS) / Hubble Space Telescope (HST) / Chandra X-Ray Observatory Orbital Data via EMAIL

Privacy Policy:

Private list